Tracking 17150 objects as of 4-August-2015
HD Live streaming from Space Station

SL-14 R/B

Track SL-14 R/B now!
10-day predictions
SL-14 R/B is classified as:


NORAD ID: 16736
Int'l Code: 1986-039B
Perigee: 945.4 km
Apogee: 963.2 km
Inclination: 82.5 °
Period: 104.0 minutes
Semi major axis: 7325 km
RCS: 5.1168 m2 (large)
Launch date: May 27, 1986
Source: Commonwealth of Independent States (former USSR) (CIS)

Note: This is a ROCKET BODY
Your satellite tracking list
Your tracking list is empty





NASA's NSSDC Master Catalog

Two Line Element Set (TLE):
1 16736U 86039B   15216.14019558  .00000004  00000-0 -99439-5 0  9991
2 16736 082.5358 211.0863 0012171 212.3893 147.6522 13.84728901475160

Source of the keplerian elements: AFSPC

N2YO: 404